www.pogodaiklimat.ru

Погода и климат >> Архив погоды >> Туркменистан >> Ербент


АРХИВ ПОГОДЫ в Ербенте

Время (UTC), дата Ветер
(напр.,м/с)
 
Видим.   Явления Облачность Т
(С)
Тd
(С)
f
(%)
Тe
(С)
Тes
(С)
Комфортность P
(гПа)
Po
(гПа)
Тmin
(С)
Tmax
(С)
R
(мм)
R24
(мм)
S
(см)
00 13.06 В 2 20 км ясно +21.2 +0.4 25 +21 +21 комфорт 1008.8 998.6
03 13.06 В 2 20 км ясно +25.4 +3.6 24 +24 +28 комфорт 1009.1 998.9 +20.8
06 13.06 В 5 20 км 4/0
[Ci sp]
+33.0 +3.4 15 +30 +38 жарко 1008.7 998.8 +20.8
09 13.06 В 5 20 км 3/0
[Ci sp]
+36.6 +0.6 10 +33 +43 жарко 1006.9 997.1
12 13.06 В 3 20 км 8/0
[Ac cast]
+37.6 -1.7 8 +34 +37 очень
жарко
1005.6 995.8
15 13.06 В 2 20 км 3/0
[Ci sp]
+36.0 -3.3 8 +32 +32 жарко 1005.4 995.6 +37.9
18 13.06 штиль 0 20 км 3/0
[Ci sp]
+28.4 -0.7 15 +26 +26 жарко 1006.4 996.3 +37.9
21 13.06 штиль 0 50 км ясно +25.7 +0.4 19 +24 +24 комфорт 1005.8 995.6
00 14.06 штиль 0 20 км ясно +22.3 +0.6 24 +22 +22 комфорт 1006.1 995.8
03 14.06 З 2 20 км ясно +26.0 +3.0 23 +25 +29 комфорт 1007.3 997.1 +21.6
06 14.06 штиль 0 20 км 4/0
[Ac cast]
+35.8 +5.8 16 +33 +49 жарко 1006.9 997.1 +21.6
09 14.06 Ю 2 20 км 4/0
[Ac cast]
+38.0 +0.4 9 +34 +48 очень
жарко
1006.4 996.6
12 14.06 З 4 20 км 4/0
[Ac cast]
+39.0 +1.5 10 +35 +40 очень
жарко
1005.0 995.3
15 14.06 З 4 20 км 8/0
[Ac cast]
+36.6 +2.5 12 +33 +33 жарко 1005.5 995.7 +39.5
18 14.06 З 2 20 км 6/0
[Ac cast]
+32.8 +1.9 14 +30 +30 жарко 1006.9 997.0 +39.5
21 14.06 С 2 20 км ясно +27.8 +1.7 18 +26 +26 жарко 1007.2 997.2
00 15.06 СЗ 2 20 км ясно +24.8 +2.7 24 +24 +24 комфорт 1009.2 999.0
03 15.06 СЗ 3 20 км ясно +26.4 +5.8 27 +26 +29 жарко 1010.7 1000.6 +24.3
06 15.06 З 2 20 км ясно +33.2 +4.6 17 +31 +47 жарко 1011.0 1001.1 +24.3
09 15.06 СВ 2 20 км ясно +36.6 +2.9 12 +33 +53 опасность
солнечного
удара
1010.4 1000.6
12 15.06 С 2 10 км ясно +37.0 +0.9 10 +33 +42 жарко 1009.6 999.8
15 15.06 С 2 20 км ясно +35.4 -0.5 10 +32 +32 жарко 1009.6 999.7 +37.5
18 15.06 С 2 20 км ясно +29.4 -6.0 10 +26 +26 жарко 1010.2 1000.1 +37.5
21 15.06 СВ 2 20 км ясно +25.0 -6.7 12 +23 +23 комфорт 1010.3 1000.2
00 16.06 штиль 0 20 км ясно +21.4 -5.4 16 +20 +20 1010.7 1000.4
03 16.06 СВ 2 20 км ясно +24.0 -3.6 16 +22 +26 комфорт 1012.0 1001.7 +20.3
06 16.06 В 4 20 км ясно +32.0 -2.7 11 +28 +39 жарко 1012.0 1002.0 +20.3
09 16.06 20 км ясно +35.3 -1.2 10 1010.5 1000.6
12 16.06 СВ 2 20 км ясно +37.1 -0.7 9 +33 +42 жарко 1008.7 998.9
15 16.06 СВ 2 20 км ясно +36.0 +0.2 10 +32 +32 жарко 1008.1 998.2 +37.4
18 16.06 СВ 2 20 км ясно +30.0 -2.5 12 +27 +27 жарко 1008.8 998.7 +37.4
21 16.06 В 2 20 км ясно +27.0 -3.8 13 +24 +24 комфорт 1008.1 998.0
00 17.06 В 2 20 км ясно +23.2 -3.3 17 +22 +22 комфорт 1008.1 997.8
03 17.06 В 2 20 км ясно +26.6 +0.2 18 +25 +29 комфорт 1007.9 997.8 +22.8
06 17.06 ЮВ 5 20 км ясно +34.3 +0.6 12 +31 +40 жарко 1008.3 998.4 +22.8
09 17.06 В 3 20 км ясно +37.4 -1.4 9 +34 +50 очень
жарко
1007.4 997.6
12 17.06 В 4 20 км ясно +38.2 -0.9 9 +34 +40 очень
жарко
1005.5 995.7
15 17.06 В 2 20 км ясно +37.4 +0.2 10 +34 +34 очень
жарко
1005.4 995.6 +38.7
18 17.06 В 2 20 км ясно +32.2 +1.1 14 +29 +29 жарко 1006.4 996.4 +38.7
21 17.06 В 2 20 км ясно +29.0 +1.3 17 +27 +27 жарко 1005.7 995.6
00 18.06 штиль 0 20 км ясно +24.8 +1.7 22 +24 +24 комфорт 1005.3 995.2
03 18.06 ЮВ 2 20 км ясно +28.0 +2.5 19 +26 +30 жарко 1006.8 996.7 +23.8
06 18.06 Ю 4 20 км ясно +36.6 +1.1 11 +33 +44 жарко 1006.5 996.7 +23.8
09 18.06 Ю 2 20 км 9/9 1000 м
[Sc]
+39.0 +1.5 10 +35 +37 очень
жарко
1005.6 995.9
12 18.06 штиль 0 20 км 8/0
[Ac cast]
+39.4 +0.4 9 +36 +41 очень
жарко
1004.4 994.7
15 18.06 Ю 2 20 км 9/9 1000 м
[Sc]
+38.6 +1.3 10 +35 +35 очень
жарко
1003.6 993.9 +39.9
18 18.06 штиль 0 20 км 4/0
[Ac cast]
+32.0 +1.1 14 +29 +29 жарко 1004.8 994.8 +39.9
21 18.06 В 2 20 км 4/0
[Ac cast]
+32.0 +2.7 16 +29 +29 жарко 1004.7 994.7
00 19.06 В 3 20 км ясно +28.4 +1.5 18 +26 +26 жарко 1004.0 994.0
03 19.06 В 6 10 км ясно +31.0 +2.7 17 +29 +30 жарко 1004.3 994.3 +27.8
06 19.06 СВ 2 20 км ясно +34.6 +3.8 15 +32 +48 жарко 1004.7 994.9 +27.8
09 19.06 В 6 10 км 4/0
[Ac cast]
+39.2 +4.1 12 +36 +42 очень
жарко
1003.5 993.8
12 19.06 СВ 8 2000 м 4/0
[Ac cast]
+38.3 +3.8 12 +35 +36 очень
жарко
1003.4 993.7
15 19.06 СВ 4 20 км 8/0
[Ac cast]
+36.8 +3.6 13 +34 +34 очень
жарко
1003.9 994.1 +40.2
18 19.06 С 2 20 км 4/0
[Ac cast]
+32.2 +2.9 16 +30 +30 жарко 1005.4 995.4 +40.2

 

Местоположение метеостанции Ербент (Ахалский велаят, Туркменистан): широта 39.32 долгота 58.60 высота над уровнем моря 87 м.

В архиве по умолчанию представлена погода в Ербенте за последнюю неделю. Архивные данные за месяц целиком и за предыдущие месяцы, начиная с января 2011 года, Вы можете получить, выбрав интересующий диапазон дат из раскрывающегося списка и нажав кнопку "Ввод!".


*Определитесь, кто Вы:
робот инопланетянин человек

Внимание! Время в таблицах - всемирное. Для получения местного времени необходимо прибавить поправку, которая равна 5 ч.

Смотрите также архив погоды в соседних городах и на ближайших метеорологических станциях:

Погода в Дервезе (Дашогузский велаят, Туркменистан) (96 км)
Погода в Акмолле (Ахалский велаят, Туркменистан) (119 км)
Погода в Бахарлы (Ахалский велаят, Туркменистан) (142 км)
Погода в Ашхабаде (город Ашхабад, Туркменистан) (157 км)
Погода в Unknown (Туркменистан) (202 км)
Погода в Екеже (Дашогузский велаят, Туркменистан) (203 км)
Погода в Сердаре (Балканский велаят, Туркменистан) (204 км)
Погода в Гаррыгале (Балканский велаят, Туркменистан) (222 км)
Погода в Боджнурде (Иран) (234 км)
Погода в Каке (Ахалский велаят, Туркменистан) (237 км)

Пояснения к столбцам:

Ветер - указаны скорость ветра в м/с - средняя за 10 мин, порывы в срок и между сроками (в фигурных скобках) и направление, откуда дует ветер: С - северный, СВ - северо-восточный, В - восточный, ЮВ - юго-восточный, Ю - южный, ЮЗ - юго-западный, З - западный, СЗ - северо-западный.
Видимость - горизонтальная дальность видимости в метрах или километрах. При видимости от 1 до 10 км при отсутствии осадков обычно наблюдается дымка, при ухудшении видимости до 1 км и менее - туман. В сухую погоду видимость может ухудшаться дымом, пылью или мглою.
Явления - указаны атмосферные явления, наблюдавшиеся в срок или в последний час перед сроком; фигурными скобками обозначены явления, наблюдавшиеся между сроками (за 1-3 часа до срока); квадратными скобками обозначены град или гололедные отложения с указанием их диаметра в мм.
Облачность - указаны через наклонную черту общая и нижняя облачность в баллах и высота нижней границы облаков в метрах; квадратными скобками обозначены формы облаков: Ci - перистые, Cs - перисто-слоистые, Cc - перисто-кучевые, Ac - высококучевые, As - высокослоистые, Sc - слоисто-кучевые, Ns - слоисто-дождевые, Cu - кучевые, Cb - кучево-дождевые. Подробнее классификацию облаков см. в Атласе облаков (PDF).
T - Температура воздуха - температура, измеренная на высоте 2 м над землей.
Td - Температура точки росы - температура, при понижении до которой содержащийся в воздухе водяной пар достигнет насыщения.
f - Относительная влажность воздуха - влажноcть воздуха, измеренная на высоте 2 м над землей.
Te - Эффективная температура - температура, которую ощущает одетый по сезону человек в тени. Характеристика душности погоды. При расчете учитывается влияние влажности воздуха и скорости ветра на теплоощущения человека.
Tes - Эффективная температура на солнце - температура, которую ощущает человек, с поправкой на солнечный нагрев. Характеристика знойности погоды. Зависит от высоты солнца над горизонтом, облачности и скорости ветра. Ночью, в пасмурную погоду, а также при ветре 12 м/с и более поправка равна нулю.
P - Атмосферное давление - приведенное к уровню моря атмосферное давление.
Po - Атмосферное давление - измеренное на уровне метеостанции атмосферное давление.
Tmin - Минимальная температура - минимум температуры воздуха на высоте 2 м над землей.
Tmax - Максимальная температура - максимум температуры воздуха на высоте 2 м над землей.
R - Количество осадков - Количество выпавших осадков за период времени, мм. При наведении курсора мыши на число - период времени, за который выпало указанное количество осадков.
R24 - Количество осадков - Количество выпавших осадков за 24 часа, мм.
S - Снежный покров - Высота снежного покрова, см. При наведении курсора мыши на число - состояние снежного покрова и степень покрытия местности в баллах.